Terug naar catalogus

FALCON 9 R/B

ActiefHEO
NORAD 62260·ROCKET BODY·🇺🇸 United States

Gelanceerd Dec 5, 2024 vanaf Cape Canaveral Space Force Station

Loading…

Volgende Passages (komende 24 uur)

TLE

VersSource: Space-Track

Epoch: Sep 14, 2026, 06:08 UTC

1 62260U 24234B   26257.25610592  .00024948  00000-0  77848-3 0  9997
2 62260  27.2412   5.9463 5757726 296.7122  16.4185  4.49221782 26429

Volg FALCON 9 R/B in realtime met AllMySat

Download on the App Store